JCSAT-13

Last updated on Sun Aug 31 2025 00:02:47 GMT+0000 (Coordinated Universal Time)

1 38331U 12023A 25242.05120704 -.00000352 00000+0 00000+0 0 9999 2 38331 0.0276 252.9299 0002753 268.5256 319.4775 1.00272566 48629
UTC large
Height (km)
Speed (km/s)
/
Latitude / Longitude
Inclination (degrees)
Orbital Period (minutes)
Azimuth
Elevation
Range (km)
Doppler Factor

Next 0 passes for location: London (51.5072 / 0.1276)

Sorry there are no passes over London.